Weather History for KCMI - August, 2014

Change the Weather History Date:

Saturday, August 16, 2014

  Actual Average Record
Temperature  
Mean Temperature 71 °F 72 °F  
Max Temperature 77 °F 83 °F 90 °F (1997)
Min Temperature 64 °F 62 °F 48 °F (2004)
Degree Days  
Heating Degree Days 0 0  
Month to date heating degree days 2 0  
Since 1 June heating degree days 9 19  
Since 1 July heating degree days 9 2  
Cooling Degree Days 6 8  
Month to date cooling degree days 85 128  
Year to date cooling degree days 677 725  
Since 1 June cooling degree days 525 633  
Growing Degree Days 20 (Base 50)    
Moisture  
Dew Point 66 °F    
Average Humidity 83    
Maximum Humidity 93    
Minimum Humidity 73    
Precipitation  
Precipitation T in 0.12 in 1.29 in (2012)
Month to date precipitation 0.50 1.54  
Year to date precipitation 27.36 25.21  
Sea Level Pressure  
Sea Level Pressure 29.95 in    
Wind  
Wind Speed 8 mph (South)    
Max Wind Speed 14 mph    
Max Gust Speed 18 mph    
Visibility 9 miles    
Events Rain    
T = Trace of Precipitation, MM = Missing Value Source: NWS Daily Summary

Daily Weather History Graph

Daily Weather History Graph

Search for Another Location

Airport or City:

Trip Planner

Search our weather history database for the weather conditions in past years. The results will help you decide how hot, cold, wet, or windy it might be!

Date:

Astronomy

Aug. 16, 2014 Rise Set
Actual Time 6:05 AM CDT 7:48 PM CDT
Civil Twilight 5:36 AM CDT 8:17 PM CDT
Nautical Twilight 5:01 AM CDT 8:52 PM CDT
Astronomical Twilight 4:24 AM CDT 9:29 PM CDT
Moon 11:31 PM CDT (8/16) 12:51 PM CDT (8/16)
Length of Visible Light 14h 40m
Length of Day
13h 42m
Waning Gibbous, 58% of the Moon is Illuminated
Aug 16
Waning Gibbous
Aug 17
Last Quarter
Aug 25
New
Sep 2
First Quarter
Sep 8
Full

Hourly Weather History & Observations

Time (CDT) Temp. Dew Point Humidity Pressure Visibility Wind Dir Wind Speed Gust Speed Precip Events Conditions
12:53 AM 64.0 °F 62.1 °F 93% 29.97 in 10.0 mi ESE 4.6 mph - N/A   Scattered Clouds
1:53 AM 64.0 °F 62.1 °F 93% 29.96 in 9.0 mi SE 5.8 mph - N/A   Mostly Cloudy
2:53 AM 66.0 °F 63.0 °F 90% 29.94 in 10.0 mi SE 6.9 mph - N/A   Overcast
3:53 AM 66.9 °F 63.0 °F 87% 29.94 in 9.0 mi SE 8.1 mph - N/A   Overcast
4:53 AM 66.0 °F 63.0 °F 90% 29.94 in 9.0 mi SSE 6.9 mph - N/A   Mostly Cloudy
5:53 AM 66.9 °F 64.0 °F 90% 29.94 in 10.0 mi South 6.9 mph - N/A   Overcast
6:53 AM 66.9 °F 64.9 °F 93% 29.94 in 7.0 mi South 5.8 mph - N/A   Mostly Cloudy
7:53 AM 69.1 °F 66.0 °F 90% 29.96 in 8.0 mi SSW 8.1 mph - N/A   Overcast
8:53 AM 72.0 °F 68.0 °F 87% 29.96 in 9.0 mi SW 10.4 mph - N/A   Mostly Cloudy
9:53 AM 73.9 °F 69.1 °F 85% 29.96 in 10.0 mi SW 11.5 mph - N/A   Mostly Cloudy
10:53 AM 73.9 °F 69.1 °F 85% 29.96 in 10.0 mi SW 8.1 mph - N/A   Overcast
11:53 AM 75.9 °F 69.1 °F 79% 29.97 in 10.0 mi WSW 9.2 mph - N/A   Overcast
12:53 PM 75.9 °F 70.0 °F 82% 29.96 in 9.0 mi SW 8.1 mph - N/A   Mostly Cloudy
1:53 PM 75.9 °F 70.0 °F 82% 29.96 in 9.0 mi SSW 9.2 mph - N/A   Mostly Cloudy
2:00 PM 75.0 °F 69.1 °F 82% 29.97 in 9.0 mi SSW 6.9 mph - N/A   Overcast
2:34 PM 75.0 °F 69.1 °F 82% 29.96 in 9.0 mi South 6.9 mph - N/A   Overcast
2:53 PM 73.0 °F 69.1 °F 87% 29.94 in 7.0 mi South 8.1 mph - 0.00 in Rain Light Rain
3:10 PM 72.0 °F 70.0 °F 93% 29.96 in 6.0 mi South 5.8 mph - 0.00 in   Overcast
3:53 PM 75.0 °F 68.0 °F 79% 29.94 in 10.0 mi SSW 10.4 mph - 0.00 in   Overcast
4:53 PM 73.9 °F 66.0 °F 76% 29.94 in 10.0 mi SSW 10.4 mph - N/A   Overcast
5:53 PM 72.0 °F 63.0 °F 73% 29.93 in 10.0 mi South 8.1 mph - N/A   Overcast
6:53 PM 70.0 °F 64.9 °F 84% 29.92 in 10.0 mi SSE 6.9 mph - N/A   Overcast
7:53 PM 69.1 °F 64.9 °F 87% 29.92 in 10.0 mi SSE 8.1 mph - N/A   Partly Cloudy
8:53 PM 66.9 °F 64.9 °F 93% 29.93 in 8.0 mi SE 8.1 mph - N/A   Partly Cloudy
9:53 PM 66.9 °F 64.9 °F 93% 29.94 in 10.0 mi SE 6.9 mph - N/A   Overcast
10:53 PM 66.9 °F 64.0 °F 90% 29.93 in 10.0 mi ESE 8.1 mph - 0.00 in   Overcast
11:53 PM 66.9 °F 64.0 °F 90% 29.92 in 10.0 mi East 8.1 mph - N/A   Overcast